User: anonymous   Login
Location: Theydon Bois
(51.6750°N, 0.1050°E)
Time: 17:13:57
(UTC+01:00)
Language:

Meteor 1-22 Rocket - Orbit

View from above orbital plane
View from above orbital plane
View from above satellite
View from above satellite

Ground track
Ground track

The orbit data is extracted from the following two-line orbital elements,

1  8294U 75087B   17291.95908562 +.00000264 +00000-0 +13839-3 0  9993
2  8294 081.2094 261.8751 0107457 052.9109 308.1824 14.08580893162022
Epoch (UTC): 18 October 2017 23:01:04
Eccentricity: 0.0107457
inclination: 81.2094°
perigee height: 786 km
apogee height: 942 km
right ascension of ascending node: 261.8751°
argument of perigee: 52.9109°
revolutions per day: 14.08580893
mean anomaly at epoch: 308.1824°
orbit number at epoch: 16202

The dashed part of the orbit path shows where the satellite is in the earth's shadow,  

DLR